Wetterdaten Frühling 2003

Datum T max T min Regen
01.03.2003 15.4 °C 3.2 °C 2.5 mm
02.03.2003 14.2 °C 5.1 °C 2.5 mm
03.03.2003 7 °C 2 °C 2.9 mm
04.03.2003 10.5 °C 1.2 °C 0 mm
06.03.2003 13.9 °C 5.6 °C 2.9 mm
07.03.2003 11.3 °C 0.9 °C 0 mm
08.03.2003 12.1 °C 0 °C 0 mm
09.03.2003 15.5 °C 3.4 °C 0 mm
10.03.2003 18.9 °C 0.7 °C 0 mm
11.03.2003 21 °C 6.2 °C 0 mm
12.03.2003 16.3 °C 7.1 °C 4.7 mm
13.03.2003 9.5 °C 4.8 °C 0 mm
15.03.2003 7.2 °C 0.5 °C 0 mm
16.03.2003 10.7 °C -2.6 °C 0 mm
17.03.2003 13.8 °C -2.8 °C 0 mm
18.03.2003 11.7 °C -1.3 °C 0 mm
19.03.2003 13.4 °C -2.4 °C 0 mm
20.03.2003 12.2 °C -2.5 °C 0 mm
21.03.2003 11.9 °C -2.7 °C 0 mm
22.03.2003 12.5 °C -1.8 °C 0 mm
24.03.2003 18.5 °C -0.8 °C 0 mm
25.03.2003 19.9 °C 1.3 °C 0 mm
26.03.2003 18.7 °C 7.4 °C 0 mm
27.03.2003 19 °C 3.8 °C 0 mm
28.03.2003 22.1 °C 3.7 °C 0.4 mm
29.03.2003 20.8 °C 8.6 °C 0.4 mm
30.03.2003 13.4 °C 11.3 °C 0 mm
31.03.2003 14.4 °C 5.4 °C 1.4 mm
01.04.2003 18.4 °C 0.4 °C 0 mm
02.04.2003 14.8 °C 2.5 °C 14.8 mm
03.04.2003 9.7 °C 3 °C 0.4 mm
04.04.2003 11.4 °C -1.1 °C 0 mm
05.04.2003 13.4 °C 0.6 °C 0 mm
06.04.2003 9.1 °C 0.7 °C 0 mm
07.04.2003 6.6 °C -2.4 °C 0 mm
08.04.2003 8.5 °C -6.2 °C 0 mm
09.04.2003 8.9 °C -2.7 °C 0 mm
10.04.2003 9.6 °C -2.8 °C 0.7 mm
11.04.2003 10.2 °C -1.1 °C 0 mm
12.04.2003 15.6 °C 0.3 °C 0 mm
13.04.2003 18.4 °C 2.1 °C 0 mm
14.04.2003 20.4 °C 4.2 °C 0 mm
15.04.2003 23.3 °C 5 °C 0 mm
16.04.2003 22.9 °C 8.6 °C 0 mm
17.04.2003 21 °C 8.7 °C 0 mm
18.04.2003 18.3 °C 4.4 °C 0 mm
19.04.2003 12.3 °C 3.7 °C 0 mm
20.04.2003 14.9 °C 2.1 °C 0 mm
21.04.2003 22.2 °C 5.1 °C 0 mm
22.04.2003 21.1 °C 7.5 °C 5 mm
23.04.2003 20.5 °C 7.6 °C 0 mm
24.04.2003 21.8 °C 5.2 °C 0 mm
25.04.2003 25.7 °C 7.1 °C 0 mm
26.04.2003 21.2 °C 11.4 °C 1.1 mm
27.04.2003 20.3 °C 9.9 °C 2.5 mm
28.04.2003 25.6 °C 7 °C 0 mm
29.04.2003 22.4 °C 13.2 °C 0 mm
30.04.2003 20 °C 10.2 °C 3.2 mm
01.05.2003 25.2 °C 8.1 °C 0 mm
02.05.2003 22.4 °C 5.7 °C 0.4 mm
03.05.2003 19.6 °C 9.7 °C 0.4 mm
04.05.2003 27.4 °C 5 °C 0 mm
05.05.2003 31.8 °C 10.3 °C 0 mm
06.05.2003 27.2 °C 15 °C 0 mm
07.05.2003 24.7 °C 12.3 °C 0 mm
08.05.2003 27.5 °C 13 °C 3.2 mm
09.05.2003 25.4 °C 13.5 °C 11.2 mm
10.05.2003 20.8 °C 12 °C 2.2 mm
11.05.2003 15.9 °C 11.2 °C 0 mm
12.05.2003 25.5 °C 18.3 °C 0 mm
13.05.2003 18.3 °C 18.3 °C 0 mm
15.05.2003 11 °C 10.4 °C 0 mm
16.05.2003 24.7 °C 5.7 °C 0 mm
17.05.2003 21.2 °C 10.7 °C 0 mm
18.05.2003 21.3 °C 12.4 °C 5.4 mm
19.05.2003 22.7 °C 13.8 °C 17.3 mm
20.05.2003 19.2 °C 9.7 °C 2.2 mm
21.05.2003 18.1 °C 9.3 °C 0.7 mm
22.05.2003 14.2 °C 9.2 °C 6.1 mm
23.05.2003 29.6 °C 13.6 °C 0 mm
24.05.2003 30.1 °C 13.9 °C 0 mm
25.05.2003 18 °C 13.1 °C 0 mm
26.05.2003 17.8 °C 12.2 °C 1.4 mm
27.05.2003 25.2 °C 14.2 °C 0 mm
28.05.2003 26.7 °C 13.6 °C 0 mm
29.05.2003 29.9 °C 15 °C 6.5 mm
30.05.2003 34.8 °C 16.2 °C 0.7 mm
31.05.2003 30.8 °C 15.9 °C 24.8 mm
*) Messwert für diesen Zeitpunkt noch nicht verfügbar
 Hinweis zur Datenqualität
∅ Temperatur

12.2 °C

Abweichung vom Mittel

+2.1 °C

Niederschlag

127.8 mm

Abweichung vom Mittel

73 %

34.8 °C

Lufttemperatur
30.05.2003

1038 hPa

Luftdruck
15.03.2003

20.8 km/h

Windböen
03.05.2003

127.76 mm

Niederschlag
 

-6.2 °C

Lufttemperatur
08.04.2003

*) °C

Bodentemperatur 5cm
01.01.1970

997 hPa

Luftdruck
24.05.2003
*) Messwert für diesen Zeitpunkt noch nicht verfügbar
 Hinweis zur Datenqualität